TimeMST,TemperatureF,Dew PointF,Humidity,Sea Level PressureIn,VisibilityMPH,Wind Direction,Wind SpeedMPH,Gust SpeedMPH,PrecipitationIn,Events,Conditions,WindDirDegrees,DateUTC
12:15 AM,42.8,37.4,81,30.03,10.0,Calm,Calm,-,N/A,,Clear,0,2013-02-22 07:15:00
12:35 AM,42.8,39.2,87,30.03,10.0,East,4.6,-,N/A,,Clear,100,2013-02-22 07:35:00
12:55 AM,42.8,39.2,87,30.03,10.0,SE,3.5,-,N/A,,Clear,130,2013-02-22 07:55:00
1:15 AM,42.8,37.4,81,30.04,10.0,SSW,4.6,-,N/A,,Clear,200,2013-02-22 08:15:00
1:35 AM,42.8,37.4,81,30.03,10.0,Calm,Calm,-,N/A,,Clear,0,2013-02-22 08:35:00
1:55 AM,42.8,37.4,81,30.04,10.0,Calm,Calm,-,N/A,,Clear,0,2013-02-22 08:55:00
2:15 AM,42.8,37.4,81,30.03,10.0,Calm,Calm,-,N/A,,Clear,0,2013-02-22 09:15:00
2:35 AM,42.8,37.4,81,30.02,10.0,Calm,Calm,-,N/A,,Clear,0,2013-02-22 09:35:00
2:55 AM,42.8,39.2,87,30.03,10.0,Calm,Calm,-,N/A,,Clear,0,2013-02-22 09:55:00
3:15 AM,41.0,37.4,87,30.02,10.0,Calm,Calm,-,N/A,,Clear,0,2013-02-22 10:15:00
3:35 AM,41.0,37.4,87,30.02,10.0,Calm,Calm,-,N/A,,Clear,0,2013-02-22 10:35:00
3:55 AM,41.0,37.4,87,30.03,10.0,NW,5.8,-,N/A,,Clear,310,2013-02-22 10:55:00
4:15 AM,41.0,35.6,81,30.04,10.0,NNW,11.5,-,N/A,,Clear,330,2013-02-22 11:15:00
4:35 AM,41.0,35.6,81,30.04,10.0,NNW,5.8,-,N/A,,Clear,340,2013-02-22 11:35:00
4:55 AM,42.8,35.6,76,30.05,10.0,NNW,9.2,-,N/A,,Clear,330,2013-02-22 11:55:00
5:15 AM,41.0,35.6,81,30.06,10.0,NNW,6.9,-,N/A,,Clear,330,2013-02-22 12:15:00
6:50 AM,41.0,35.6,81,30.09,20.0,Variable,3.5,-,N/A,,Partly Cloudy,0,2013-02-22 13:50:00
7:47 AM,39.2,35.6,87,30.11,45.0,Calm,Calm,-,N/A,,Partly Cloudy,0,2013-02-22 14:47:00
8:47 AM,42.8,37.4,81,30.14,45.0,NW,6.9,-,N/A,,Clear,320,2013-02-22 15:47:00
9:47 AM,46.4,37.4,71,30.14,40.0,Calm,Calm,-,N/A,,Partly Cloudy,0,2013-02-22 16:47:00
10:47 AM,50.0,37.4,62,30.14,40.0,Calm,Calm,-,N/A,,Partly Cloudy,0,2013-02-22 17:47:00
11:47 AM,53.6,37.4,54,30.15,40.0,Calm,Calm,-,N/A,,Partly Cloudy,0,2013-02-22 18:47:00
12:47 PM,55.4,33.8,44,30.14,40.0,WNW,8.1,16.1,N/A,,Scattered Clouds,300,2013-02-22 19:47:00
1:47 PM,55.4,26.6,33,30.12,45.0,Calm,Calm,-,N/A,,Scattered Clouds,0,2013-02-22 20:47:00
2:47 PM,57.2,26.6,31,30.11,45.0,NW,3.5,-,N/A,,Partly Cloudy,320,2013-02-22 21:47:00
3:47 PM,57.2,19.4,23,30.09,45.0,NW,8.1,-,N/A,,Partly Cloudy,310,2013-02-22 22:47:00
4:47 PM,57.2,21.2,25,30.09,45.0,WNW,4.6,-,N/A,,Partly Cloudy,290,2013-02-22 23:47:00
5:51 PM,57.2,21.2,25,30.10,45.0,NW,3.5,-,N/A,,Clear,310,2013-02-23 00:51:00
6:47 PM,55.4,26.6,33,30.12,20.0,SE,4.6,-,N/A,,Partly Cloudy,130,2013-02-23 01:47:00
7:47 PM,53.6,32.0,44,30.13,20.0,SSE,4.6,-,N/A,,Partly Cloudy,150,2013-02-23 02:47:00
7:55 PM,50.0,32.0,50,30.13,10.0,SSE,4.6,-,N/A,,Clear,160,2013-02-23 02:55:00
8:15 PM,50.0,32.0,50,30.13,10.0,SSE,4.6,-,N/A,,Clear,150,2013-02-23 03:15:00
8:35 PM,50.0,32.0,50,30.14,10.0,SSE,3.5,-,N/A,,Clear,160,2013-02-23 03:35:00
8:47 PM,51.8,33.8,50,30.14,20.0,SE,4.6,-,N/A,,Partly Cloudy,140,2013-02-23 03:47:00
9:15 PM,46.4,32.0,57,30.14,10.0,SE,5.8,-,N/A,,Clear,130,2013-02-23 04:15:00
9:35 PM,44.6,32.0,61,30.15,10.0,ESE,5.8,-,N/A,,Clear,120,2013-02-23 04:35:00
9:55 PM,42.8,33.8,70,30.15,10.0,East,6.9,-,N/A,,Clear,100,2013-02-23 04:55:00
10:15 PM,42.8,35.6,76,30.15,10.0,East,6.9,-,N/A,,Clear,100,2013-02-23 05:15:00
10:35 PM,42.8,33.8,70,30.15,10.0,East,6.9,-,N/A,,Clear,100,2013-02-23 05:35:00
10:55 PM,42.8,33.8,70,30.16,10.0,ESE,5.8,-,N/A,,Clear,110,2013-02-23 05:55:00
11:15 PM,42.8,33.8,70,30.15,10.0,East,6.9,-,N/A,,Clear,100,2013-02-23 06:15:00
11:35 PM,42.8,33.8,70,30.15,10.0,ESE,8.1,-,N/A,,Clear,110,2013-02-23 06:35:00
11:55 PM,42.8,33.8,70,30.15,10.0,ESE,9.2,-,N/A,,Clear,110,2013-02-23 06:55:00